This demonstration page uses our WeatherBlox Daily Observations layout. Learn more.

Left ArrowRight Arrow

Hourly Observations for October 30, 2015

Temp ( °F °C ) Dew Point ( °F °C ) Humidity (%) Winds ( mph kmh ) Pressure ( in mb ) Visibility ( mi km ) Precip ( " mm )
12:53 am 00:53 Cloudy 40 4.4 30 -1.1 68 68 WSW 13 20 29.78 1009 10 16 0.00 0.00
1:53 am 01:53 Cloudy 42 5.6 30 -1.1 62 62 SW 15 24 29.77 1008 10 16 0.00 0.00
2:53 am 02:53 Mostly Clear 40 4.4 30 -1.1 68 68 SW 15 24 29.77 1008 10 16 0.00 0.00
3:53 am 03:53 Clear 39 3.9 29 -1.7 67 67 SW 15 24 29.76 1008 10 16 0.00 0.00
4:53 am 04:53 Clear 38 3.3 29 -1.7 70 70 SW 13 20 29.74 1007 10 16 0.00 0.00
5:53 am 05:53 Clear 39 3.9 28 -2.2 65 65 SW 18 30 29.72 1007 10 16 0.00 0.00
6:53 am 06:53 Mostly Clear 41 5 28 -2.2 60 60 SSW 20 31 29.70 1006 10 16 0.00 0.00
7:53 am 07:53 Cloudy 43 6.1 30 -1.1 60 60 SW 18 30 29.69 1005 10 16 0.00 0.00
8:53 am 08:53 Cloudy 44 6.7 31 -0.6 60 60 SW 15 24 29.67 1005 10 16 0.00 0.00
9:53 am 09:53 Sunny 48 8.9 32 0 54 54 SW 24 39 29.64 1004 10 16 0.00 0.00
10:53 am 10:53 Sunny 51 10.6 34 1.1 52 52 SW 22 35 29.62 1003 10 16 0.00 0.00
11:53 am 11:53 Sunny 57 13.9 34 1.1 42 42 SW 24 39 29.57 1001 10 16 0.00 0.00
12:53 pm 12:53 Sunny 57 13.9 34 1.1 42 42 SW 30 48 29.54 1000 10 16 0.00 0.00
1:53 pm 13:53 Cloudy 57 13.9 33 0.6 41 41 SW 23 37 29.49 999 10 16 0.00 0.00
2:53 pm 14:53 Cloudy with Light Rain 53 11.7 36 2.2 52 52 WSW 22 35 29.49 999 10 16 0.00 0.03
3:53 pm 15:53 Cloudy 48 8.9 43 6.1 83 83 S 9 15 29.46 998 10 16 0.01 0.25
4:53 pm 16:53 Cloudy 51 10.6 40 4.4 66 66 SSW 14 22 29.41 996 10 16 0.01 0.25
5:53 pm 17:53 Cloudy 54 12.2 38 3.3 55 55 SW 20 31 29.38 995 10 16 0.00 0.00
6:53 pm 18:53 Cloudy 52 11.1 36 2.2 55 55 SW 18 30 29.37 995 10 16 0.00 0.00
7:53 pm 19:53 Partly Cloudy 50 10 36 2.2 59 59 WSW 15 24 29.41 996 10 16 0.00 0.00
8:53 pm 20:53 Clear 50 10 36 2.2 59 59 WSW 18 30 29.42 996 10 16 0.00 0.00
9:53 pm 21:53 Clear 49 9.4 35 1.7 59 59 W 24 39 29.44 997 10 16 0.00 0.00
10:53 pm 22:53 Clear 48 8.9 35 1.7 61 61 W 26 43 29.48 998 10 16 0.00 0.00
11:53 pm 23:53 Clear 47 8.3 33 0.6 59 59 WNW 22 35 29.53 1000 10 16 0.00 0.00

Powered by AerisWeather